Location: New Frontier Mobile Home Park
(32.8448°N, 116.9675°W)
Time: 01:16:08
(UTC+00:00)

Daily predictions for brighter satellites

Satellite Brightness Start Highest point End
(mag) Time Altitude Azimuth Time Altitude Azimuth Time Altitude Azimuth
Nadezhda 1 Rocket 4.3 03:16:18 10° N 03:22:29 49° E 03:28:32 10° SSE
Cosmos 773 Rocket 4.1 03:19:41 10° SSW 03:24:58 89° E 03:30:17 10° NNE
H-2A R/B 2.4 03:20:33 10° S 03:25:59 77° WSW 03:31:25 10° NNW
USA 186 1.7 03:23:41 10° SSE 03:26:53 69° ENE 03:29:59 10° N
SEDSat Delta rocket 4.1 03:23:26 10° SW 03:28:12 38° SSE 03:33:37 10° E
Cosmos 1844 Rocket 2.7 03:22:40 10° NNW 03:28:13 67° ENE 03:33:45 10° SSE
Cosmos-2242 4.1 03:25:10 10° NNE 03:28:57 28° ENE 03:32:43 10° SE
Cosmos 1455 2.3 03:29:50 10° N 03:33:38 56° E 03:37:26 10° SSE
Cosmos 1812 Rocket 3.5 03:30:08 10° N 03:34:29 84° E 03:38:49 10° S
CZ-2C R/B 3.9 03:29:17 10° S 03:34:46 56° W 03:40:02 10° NNW
Cosmos 2333 Rocket 2.5 03:29:14 10° SSW 03:34:53 77° WNW 03:40:38 10° NNE
OAO 2 Rocket 3.4 03:29:40 10° WNW 03:34:54 89° S 03:40:12 10° ESE
Cosmos 1538 Rocket 4.0 03:30:16 10° S 03:35:35 70° ESE 03:40:53 10° NNE
SPOT 3 Rocket 4.3 03:33:06 10° SE 03:37:47 35° ENE 03:42:30 10° N
Cosmos 2084 4.4 03:35:12 10° NNW 03:39:19 36° NE 03:43:01 12° ESE
NOSS 0 Rocket 4.2 03:34:34 10° S 03:40:24 47° ESE 03:46:17 10° NE
DMSP B5D2-2 4.0 03:38:10 10° NNE 03:43:23 80° ESE 03:48:35 10° S
Cosmos 2278 Rocket 3.9 03:41:27 10° NNE 03:45:10 18° ENE 03:48:52 10° E
MONITOR-E 3.4 03:48:40 11° SSE 03:50:58 80° ENE 03:53:25 10° N
BREEZE-M DEB (TANK) 4.3 03:48:06 10° NNW 03:51:15 29° NE 03:54:42 11° E
SL-16 R/B 3.9 03:51:42 12° ESE 03:52:30 12° E 03:54:44 10° ENE
Genesis I 3.4 03:48:42 10° SSW 03:52:34 75° WNW 03:56:28 10° NNE
H-2A ROCKET BODY 3.0 03:56:20 10° WSW 04:00:00 46° S 04:09:41 15° ESE
Ariane Rocket 3.8 03:56:10 10° S 04:01:07 52° W 04:06:05 10° NNW
BREEZE-M (TANK) 3.0 04:00:18 10° SSW 04:02:59 45° SE 04:09:58 10° NE
FREGAT/IRIS 4.3 04:00:49 10° SSW 04:03:08 28° W 04:05:30 10° NW
CZ-3A R/B 4.1 03:55:08 10° SW 04:09:00 24° S 04:12:44 18° SE
Alouette 2 Rocket 4.5 04:06:57 10° N 04:11:59 75° E 04:19:50 10° SSE
Cosmos 1315 Rocket 3.5 04:12:26 10° N 04:16:17 37° ENE 04:17:51 27° SE
MetOp-A 4.4 04:11:10 10° S 04:16:28 68° WSW 04:21:49 10° NNW
CZ-2C R/B 4.5 04:12:17 10° N 04:16:58 57° WNW 04:21:35 10° SSW
ISS -3.7 04:18:17 10° SSW 04:21:33 53° SE 04:24:50 10° NE
Cosmos 2074 Rocket 4.4 04:19:32 20° SSE 04:23:25 42° E 04:29:12 10° NNE
Cosmos 44 2.8 04:21:54 10° SSW 04:26:09 69° ESE 04:30:28 10° NNE
Cosmos 1400 Rocket 3.9 04:24:24 10° NNW 04:28:04 41° W 04:31:27 12° SSW
Cosmos 1980 3.8 04:23:30 10° SSW 04:29:08 81° WNW 04:34:48 10° NNE
Cosmos 1680 Rocket 3.4 04:24:20 10° S 04:29:35 70° ESE 04:34:53 10° NNE
Cosmos 1892 3.7 04:31:28 28° E 04:31:28 28° E 04:34:30 10° NNE
Atlas Centaur 2 3.4 04:34:13 10° WSW 04:37:58 23° SSW 04:39:15 21° S
Cosmos 2181 Rocket 3.9 04:36:46 10° N 04:43:02 84° E 04:46:46 26° S
ATLAS CENTAUR R/B 2.2 04:40:00 10° NW 04:43:21 36° WSW 04:44:36 27° SSW
Cosmos 158 Rocket 3.7 04:40:03 10° SSW 04:44:54 88° WNW 04:49:49 10° NNE
Cosmos 2237 Rocket 2.7 04:39:41 10° SSW 04:45:18 63° WNW 04:50:58 10° NNE
Landsat 7 4.1 04:46:28 41° ESE 04:47:40 51° ENE 04:52:16 10° N
Resurs 01 Rocket 2.1 04:46:25 26° S 04:48:42 57° W 04:53:03 10° NNW
Meteor 2-17 Rocket 4.4 04:46:51 31° SSE 04:49:41 60° E 04:55:37 10° NNE
BREEZE-M R/B 4.1 04:42:31 10° NW 04:53:43 87° NE 04:55:57 40° SE
Gblst 52 Del rocket 4.3 04:48:00 10° NW 04:53:45 81° NE 04:56:10 39° SE
ERS-1 Rocket 3.7 04:56:29 33° E 04:57:08 35° ENE 05:01:39 10° N
Cosmos 1825 4.3 05:00:46 17° NE 05:00:46 17° NE 05:01:58 10° NE
Hubble Space Telescope 1.7 04:55:36 10° WSW 04:58:45 35° SW 04:58:45 35° SW
NOSS 3-4 (A) 4.2 04:53:15 10° NNW 05:00:19 54° ENE 05:03:32 34° ESE
NOSS 3-4 (C) 4.3 04:53:22 10° NNW 05:00:26 53° ENE 05:03:38 34° ESE
Cosmos 1842 Rocket 3.4 04:56:33 10° N 05:00:52 81° E 05:01:26 66° SSE
Cosmos 1408 4.0 05:04:55 27° NE 05:04:55 27° NE 05:06:52 10° NNE
SPOT 1/Viking Rocket 3.5 05:07:05 55° SE 05:08:05 69° ENE 05:13:14 10° N
TSX-5 4.1 05:05:14 10° NNW 05:09:26 85° WSW 05:10:13 63° SSE
Cosmos 2221 2.3 05:07:49 10° N 05:12:10 89° W 05:12:22 82° S
USA 245 3.4 05:12:46 72° SW 05:12:56 73° W 05:17:34 10° NNW
Cosmos 1869 3.3 05:09:07 10° N 05:13:08 84° WNW 05:13:08 84° WNW
SEDSat Delta rocket 3.6 05:08:44 10° WSW 05:14:20 74° S 05:16:00 49° ESE
CARTOSAT-1 4.0 05:15:18 47° NE 05:15:18 47° NE 05:19:04 10° N
Mugunghwa Rocket 4.2 05:10:14 10° WSW 05:16:24 48° S 05:16:45 47° SSE
Cosmos 2151 4.4 05:20:18 28° NE 05:20:18 28° NE 05:22:41 10° NNE
OAO 2 Rocket 4.3 05:14:45 10° W 05:19:15 34° SW 05:19:15 34° SW
SPOT 5 3.1 05:21:09 51° ENE 05:21:09 51° ENE 05:25:34 10° N
Meteor 2-2 Rocket 4.3 05:20:55 10° NNW 05:26:36 75° W 05:27:51 54° SSW
ATLAS 2AS CENTAUR R/B 2.7 05:20:20 10° NNW 05:27:42 73° ENE 05:29:20 54° SE
Cosmos 2278 Rocket 2.6 05:24:03 10° NNW 05:29:34 55° WSW 05:30:45 46° SSW
USA 215 3.1 05:25:51 10° NE 05:32:19 62° SE 05:33:37 52° S
IGS 5A 4.4 05:32:57 40° W 05:32:59 40° W 05:36:55 10° NNW
Cosmos 1076 Rocket 4.2 05:33:35 48° W 05:33:50 48° W 05:37:59 10° N
Terra 2.4 05:35:48 47° NE 05:35:48 47° NE 05:39:45 10° N
Cosmos 2344 4.1 05:28:18 10° SW 05:35:48 54° NW 05:43:18 10° NNE
SL-16 R/B 2.4 05:33:28 35° SW 05:35:53 67° WNW 05:41:34 10° NNE
GEOS 3 Rocket 3.7 05:32:19 10° NNE 05:37:43 76° WNW 05:39:54 37° SW
Spot 2 Rocket 4.4 05:39:48 36° SW 05:40:45 40° W 05:45:33 10° NNW
Cosmos 2297 4.2 05:35:41 10° N 05:41:08 45° ENE 05:41:08 45° ENE
Cosmos 1371 Rocket 3.9 05:39:02 10° NNW 05:44:12 85° N 05:44:12 85° N
BREEZE-M DEB (TANK) 4.1 05:48:59 25° NNW 05:48:59 25° NNW 05:52:21 10° NE
ISS -0.6 05:56:32 10° WNW 05:58:33 15° NNW 06:00:33 10° N
Cosmos 2056 Rocket 3.9 06:02:00 10° NNW 06:06:49 60° WNW 06:06:49 60° WNW
Nadezhda 3 Rocket 4.3 06:06:00 10° NNW 06:12:09 55° W 06:12:43 53° WSW
Lacrosse 5 rocket 3.9 06:12:22 10° N 06:13:51 16° NNE 06:13:51 16° NNE
Cosmos 2369 Rocket 3.6 06:10:46 10° N 06:14:52 27° NE 06:14:52 27° NE
SL-8 Rocket 3.9 06:17:09 77° N 06:17:09 77° N 06:22:50 10° N
DELTA 2 R/B (1) 4.0 06:13:52 10° WNW 06:18:39 58° NNW 06:18:39 58° NNW
Cosmos 2341 Rocket 4.5 06:27:53 51° W 06:28:15 52° W 06:34:17 10° N
VEP-3 4.3 06:23:07 10° WSW 06:46:54 16° ESE 06:56:12 10° ESE
Cosmos 1452 Rocket 4.4 06:28:23 10° NNW 06:32:00 44° N 06:32:00 44° N
Cosmos 1943 Rocket 2.9 06:37:13 10° NNW 06:41:24 49° N 06:41:24 49° N
Lacrosse 5 4.3 06:47:13 14° NE 06:47:13 14° NE 06:48:00 10° NE
Meteor 2-3 Rocket 4.4 06:46:55 51° NNW 06:46:55 51° NNW 06:51:26 10° N
COSMOS 2455 3.6 06:55:11 10° NNW 06:59:34 49° NW 06:59:34 49° NW
Cosmos 1943 4.2 07:06:58 44° NNW 07:06:58 44° NNW 07:11:09 10° N
CZ-4C R/B 3.0 07:19:45 10° NNW 07:27:08 78° NNE 07:27:08 78° NNE
USA 267 4.2 07:41:27 38° ENE 07:42:41 41° NE 07:48:43 10° NNW
Cosmos 2369 Rocket 4.1 07:54:29 10° NW 07:56:38 21° WNW 07:56:38 21° WNW
Resurs 1-4 Rocket 4.4 08:14:48 10° NE 08:16:39 16° ENE 08:16:39 16° ENE
Lacrosse 5 4.1 08:26:22 19° NW 08:26:22 19° NW 08:29:58 10° N
SL-16 R/B 3.5 08:57:24 37° E 08:58:20 39° ENE 09:04:03 10° N
SeaSat 1 3.9 09:00:59 10° NE 09:03:54 32° ENE 09:03:54 32° ENE
Cosmos 2082 Rocket 3.5 09:09:56 32° E 09:09:56 32° E 09:14:07 10° NE
Cosmos 1140 Rocket 4.5 09:12:15 44° NE 09:12:15 44° NE 09:15:51 10° NNE
Cosmos 1833 Rocket 3.3 09:13:22 50° NE 09:13:22 50° NE 09:17:38 10° NNE
Cosmos 407 Rocket 4.4 09:16:14 48° N 09:16:14 48° N 09:20:04 10° NNE
CZ-2D R/B 2.8 09:11:31 10° NNE 09:15:43 53° NE 09:15:43 53° NE
COSMOS 2406 3.7 09:19:57 55° NNW 09:19:57 55° NNW 09:24:36 10° NNE
Cosmos 1656 4.3 09:18:04 10° N 09:23:19 47° ENE 09:23:19 47° ENE
USA 267 4.5 09:28:46 28° WNW 09:28:46 28° WNW 09:31:49 10° NW
Cosmos 2100 Rocket 4.4 09:28:45 52° NW 09:28:45 52° NW 09:34:04 10° N
Cosmos 1459 Rocket 4.4 09:35:24 49° NW 09:35:24 49° NW 09:40:32 10° N
Cosmos 676 Rocket 4.4 09:38:07 60° NE 09:38:07 60° NE 09:42:29 10° NNE
Cosmos 2233 Rocket 4.4 09:38:05 50° ESE 09:38:46 53° E 09:44:47 10° NNE
Cosmos 2346 Rocket 4.4 09:33:49 10° N 09:39:58 74° E 09:40:11 73° ESE
ARIANE 5 R/B 4.2 09:39:57 10° NE 09:44:02 24° E 09:44:50 23° ESE
Cosmos 1802 Rocket 4.3 09:47:10 52° WNW 09:47:10 52° WNW 09:53:05 10° N
AQUA 4.4 09:47:04 10° N 09:50:48 54° N 09:50:48 54° N
ADEOS II 2.4 09:48:04 10° NNE 09:53:15 58° E 09:53:17 58° ESE
BREEZE-M DEB (TANK) 4.4 09:53:02 56° W 09:54:24 72° NW 10:15:38 10° NE
NPP 4.0 09:51:35 10° N 09:56:19 53° NW 09:56:19 53° NW
Resurs 1-4 Rocket 2.8 09:53:22 10° N 09:57:44 41° NW 09:57:44 41° NW
Cosmos 1536 4.0 10:01:30 41° N 10:01:30 41° N 10:04:13 10° N
Cosmos 1725 Rocket 4.1 10:04:33 56° W 10:04:38 56° W 10:10:44 10° N
ATLAS 5 CENTAUR R/B 4.4 10:08:24 10° N 10:13:28 28° NE 10:19:04 10° ESE
IRS-P3 Rocket 4.4 10:10:39 10° NNE 10:15:56 87° WNW 10:16:19 77° SSW
CZ-3B R/B 4.4 10:12:35 38° SSW 10:16:24 45° S 10:22:56 10° ESE
CENTAUR R/B 4.2 10:17:11 15° SE 10:19:44 20° ESE 10:23:59 10° ENE
Cosmos 1241 Rocket 4.4 10:13:36 10° NNW 10:20:06 82° WSW 10:23:10 34° SSE
Cosmos 921 Rocket 3.5 10:15:55 10° N 10:20:13 56° ENE 10:20:45 51° ESE
Cosmos 1980 Rocket 3.3 10:15:41 10° N 10:21:03 42° ENE 10:26:23 10° SE
Cosmos 2369 3.8 10:15:26 10° NNW 10:21:11 77° ENE 10:23:57 32° SSE
IRS-P3 4.0 10:22:12 10° N 10:27:33 80° WNW 10:28:22 64° SW
Cosmos 2221 Rocket 4.3 10:23:24 10° NNW 10:26:37 41° NW 10:26:37 41° NW
Tsikada Rocket 4.1 10:21:29 10° NNW 10:27:48 62° W 10:29:04 52° SW
IDEFIX/ARIANE 42P 3.6 10:23:24 10° NNE 10:28:13 38° E 10:30:35 25° SSE
H-2A R/B (2) 3.3 10:31:46 20° SE 10:31:46 20° SE 10:33:02 10° ESE
Meteor 2-11 Rocket 4.3 10:28:52 49° S 10:30:39 89° W 10:36:45 10° N
ERBS 4.2 10:31:59 24° E 10:31:59 24° E 10:34:01 10° ENE
Cosmos 1378 Rocket 4.3 10:27:32 10° N 10:31:51 50° E 10:33:31 32° SE
Cosmos 1867 4.4 10:30:41 34° SSE 10:32:18 43° ESE 10:37:25 10° NE
Meteor 1-11 Rocket 4.4 10:36:43 36° W 10:36:58 36° WNW 10:42:02 10° N
Star 37E S/N 40062 4.5 10:37:57 48° SSE 10:37:57 48° SSE 10:45:37 10° E
Cosmos 2278 3.8 10:35:45 10° NNW 10:41:29 75° ENE 10:47:10 10° SSE
SL-16 R/B 3.6 10:42:29 27° W 10:42:29 27° W 10:47:09 10° NW
COBE Rocket 3.8 10:41:21 55° SSW 10:42:15 67° W 10:47:11 10° NNW
SeaSat 1 4.1 10:39:22 10° N 10:42:53 20° NW 10:43:40 19° WNW
ERS-1 4.4 10:39:21 10° N 10:44:24 78° WNW 10:45:38 52° SSW
OAO 1 4.5 10:43:29 45° W 10:45:15 87° N 10:50:48 10° ENE
Cosmos 1464 Rocket 4.2 10:43:00 26° S 10:46:47 72° E 10:53:08 10° N
Cosmos 1697 Rocket 2.7 10:43:32 10° NNW 10:48:58 53° WSW 10:50:19 43° SSW
CZ-2D R/B 3.5 10:46:58 10° NNE 10:51:18 82° E 10:52:21 50° S
Cosmos 1544 3.4 10:51:41 51° SE 10:52:16 61° E 10:55:49 10° NNE
Cosmos 2082 Rocket 3.4 10:51:47 25° W 10:53:05 28° WNW 10:57:55 10° N
ISS -0.3 10:52:12 10° N 10:53:29 12° NNE 10:54:47 10° NE
Cosmos 1763 Rocket 4.2 10:48:39 10° N 10:53:49 53° ENE 10:58:59 10° SSE
CZ-2D R/B 4.2 10:54:07 10° NW 10:56:18 13° WNW 10:57:02 12° WNW
Sakura Rocket 4.4 10:53:32 34° WSW 10:56:50 64° S 11:05:59 10° E
Cosmos 1674 Rocket 3.5 10:52:48 10° NNW 10:57:03 56° W 10:57:34 52° SW
Cosmos 2034 Rocket 4.4 10:52:55 16° SSE 10:57:50 60° E 11:03:52 10° NNE
Cosmos 1743 3.0 10:58:01 49° WNW 10:58:01 49° WNW 11:01:41 10° N
Cosmos 1782 Rocket 3.7 10:58:57 31° S 11:01:02 71° E 11:05:27 10° NNE
Cosmos 468 Rocket 4.0 11:00:20 10° NNW 11:05:40 84° ENE 11:10:58 10° SSE
Cosmos 1072 Rocket 4.5 11:02:37 28° SSW 11:06:08 72° W 11:12:23 10° N
Meteor 1-23 Rocket 4.5 11:03:20 10° NNW 11:08:53 50° W 11:11:43 27° SSW
NOSS 3-2 (C) 3.5 11:06:03 25° S 11:09:13 62° ESE 11:15:11 10° NE
Landsat 5 4.4 11:09:01 10° SSE 11:12:48 45° ENE 11:16:30 10° N
Cosmos 1908 Rocket 4.1 11:11:48 35° WSW 11:12:49 41° W 11:17:03 10° N
Cosmos 1242 Rocket 2.4 11:11:58 10° NNW 11:15:23 59° W 11:16:11 44° SSW
SL-08 R/B 3.7 11:16:10 31° SW 11:17:51 42° W 11:22:24 10° NNW
NOSS 3-2 (A) 3.4 11:18:24 28° SW 11:21:21 60° WNW 11:27:26 10° NNE
Cosmos 841 Rocket 4.5 11:16:44 10° N 11:21:43 48° ENE 11:26:44 10° SE
Meteor 2-9 Rocket 4.0 11:18:40 20° S 11:22:28 84° W 11:27:49 10° N
ARIANE 5 R/B 3.4 11:18:35 10° N 11:23:05 32° WNW 11:25:10 24° WSW
Cosmos 2322 Rocket 4.1 11:19:53 10° N 11:24:56 33° ENE 11:30:00 10° SE
Sich 1 Rocket 3.6 11:22:35 17° S 11:26:06 85° E 11:30:38 10° N
Cosmos 1378 3.9 11:24:57 10° NNW 11:28:21 33° W 11:29:12 29° WSW
CSL-04 DEB 4.5 11:26:35 15° S 11:29:56 58° WSW 11:33:59 10° NNW
CZ-4B R/B 4.4 11:28:15 10° ESE 11:30:48 20° ENE 11:33:23 10° NNE
ADEOS II 3.9 11:29:37 10° NNW 11:32:24 15° WNW 11:34:13 12° W
Cosmos 1818 3.6 11:27:57 10° NNW 11:33:25 82° ENE 11:38:50 10° SSE
deb Chang Zheng 4 4.2 11:33:05 10° NNE 11:37:17 55° E 11:41:29 10° S
SL-27 R/B 3.8 11:42:13 20° WSW 11:43:27 24° WNW 11:46:23 10° NNW
CZ-4C R/B 3.0 11:42:59 14° S 11:45:38 46° W 11:48:43 10° NNW
Cosmos 1975 3.9 11:44:42 20° WSW 11:46:27 27° W 11:49:52 10° NNW
H-2A R/B 2.3 11:43:40 10° S 11:47:58 50° W 11:52:11 10° NNW
Cosmos 1975 Rocket 3.1 11:44:16 10° NNW 11:48:39 63° W 11:53:04 10° S
CZ-2C R/B 4.0 11:48:49 10° NNW 11:52:15 27° WNW 11:54:40 16° WSW
PSLV R/B 3.6 11:49:35 10° N 11:53:53 68° WNW 11:58:12 10° SSW
